Terminal Aerodrome Forecast
Issued by NWS

Home | Current Version | Previous Version | Text Only | Print | Product List | Glossary On
Versions: 1 2 3 4 5 6 7 8 9 10 11 12 13 14 15 16
000
FTUS46 KEKA 061122
TAFUKI
TAF
KUKI 061122Z 0612/0712 01006KT P6SM FEW250
     FM061700 33010G18KT P6SM SKC
     FM070500 36008G15KT P6SM SKC
     FM071000 34005KT P6SM SKC=

USA.gov is the U.S. government's official web portal to all federal, state and local government web resources and services.